Date String (YYYY-MM-DD hh:mm:ss) UTC,Instrument flags,Ambient pressure (hPa),Sample flow (lpm),Bypass flow (lpm),Sample temperature (°C),Ambient temperature (°C),ASC tube jacket temperature (°C),LED temperature (°C),Box temperature (°C),Sample RH (%),Span deviation,Mass concentration (μg/m³),Mass concentration (μg/m³),Mass concentration (μg/m³)
DateTimeUTC,F1_M11,P_M11,Q1_M11,Q2_M11,T1_M11,T2_M11,T3_M11,T4_M11,T5_M11,U1_M11,ZSPAN_M11,X2_M11,X0_M11,X1_M11
2023-05-28 00:00:00,,0825.3,5.00,0.00,29.6,28.3,00.0,37.8,31.3,26.7,0000.0,0005.08,0010.29,0004.29
2023-05-28 00:01:00,,0825.2,5.00,0.00,29.6,28.3,00.0,37.9,31.4,27.0,0000.0,0005.10,0010.20,0004.29
2023-05-28 00:02:00,,0825.2,5.00,0.00,29.6,28.4,00.0,37.9,31.4,26.9,0000.0,0005.14,0010.42,0004.30
2023-05-28 00:03:00,,0825.2,5.01,0.00,29.7,28.5,00.0,37.9,31.4,26.9,0000.0,0005.14,0010.53,0004.29
2023-05-28 00:04:00,,0825.2,5.01,0.00,29.7,28.5,00.0,37.9,31.4,26.1,0000.0,0005.12,0010.54,0004.28
2023-05-28 00:05:00,,0825.2,5.00,0.00,29.7,28.5,00.0,38.0,31.5,25.3,0000.0,0005.06,0010.32,0004.24
2023-05-28 00:06:00,,0825.1,5.00,0.00,29.8,28.6,00.0,38.0,31.5,25.1,0000.0,0004.98,0010.25,0004.20
2023-05-28 00:07:00,,0825.1,5.00,0.00,29.8,28.6,00.0,38.0,31.5,25.1,0000.0,0004.95,0009.91,0004.17
2023-05-28 00:08:00,,0825.1,5.00,0.00,29.8,28.7,00.0,38.0,31.6,25.1,0000.0,0004.91,0009.70,0004.13
2023-05-28 00:09:00,,0825.1,5.00,0.00,29.9,28.7,00.0,38.1,31.6,25.3,0000.0,0004.90,0009.72,0004.10
2023-05-28 00:10:00,,0825.1,5.01,0.00,29.9,28.7,00.0,38.1,31.6,25.5,0000.0,0004.92,0010.25,0004.08
2023-05-28 00:11:00,,0825.1,5.01,0.00,29.9,28.8,00.0,38.1,31.7,25.1,0000.0,0004.89,0009.97,0004.05
2023-05-28 00:12:00,,0825.1,5.00,0.00,30.0,28.8,00.0,38.2,31.7,25.0,0000.0,0004.86,0009.92,0004.02
2023-05-28 00:13:00,,0825.1,4.99,0.00,30.0,28.8,00.0,38.2,31.7,25.1,0000.0,0004.81,0010.21,0003.97
2023-05-28 00:14:00,,0825.0,4.99,0.00,30.0,28.6,00.0,38.2,31.7,24.7,0000.0,0004.78,0010.20,0003.94
2023-05-28 00:15:00,,0825.0,5.00,0.00,30.0,27.0,00.0,38.1,31.5,25.0,0000.0,0004.75,0010.13,0003.91
2023-05-28 00:16:00,,0824.9,5.01,0.00,29.9,26.0,00.0,38.1,31.3,25.3,0000.0,0004.73,0010.08,0003.89
2023-05-28 00:17:00,,0824.9,5.01,0.00,29.8,25.9,00.0,38.0,31.2,24.5,0000.0,0004.77,0010.08,0003.87
2023-05-28 00:18:00,,0825.0,5.00,0.00,29.8,26.2,00.0,38.0,31.1,24.4,0000.0,0004.73,0009.91,0003.84
2023-05-28 00:19:00,,0825.0,5.01,0.00,29.7,26.6,00.0,38.1,31.2,24.2,0000.0,0004.70,0009.86,0003.81
2023-05-28 00:20:00,,0825.1,5.00,0.00,29.7,26.9,00.0,38.1,31.2,23.9,0000.0,0004.69,0009.88,0003.78
2023-05-28 00:21:00,,0825.1,5.01,0.00,29.7,27.2,00.0,38.1,31.3,24.2,0000.0,0004.61,0009.59,0003.73
2023-05-28 00:22:00,,0825.2,4.99,0.00,29.7,27.5,00.0,38.1,31.3,23.8,0000.0,0004.56,0009.82,0003.69
2023-05-28 00:23:00,,0825.1,4.99,0.00,29.7,27.7,00.0,38.1,31.4,23.8,0000.0,0004.58,0010.22,0003.66
2023-05-28 00:24:00,,0825.1,5.00,0.00,29.7,28.0,00.0,38.1,31.4,23.6,0000.0,0004.57,0010.21,0003.63
2023-05-28 00:25:00,,0825.2,5.01,0.00,29.8,28.1,00.0,38.1,31.4,23.7,0000.0,0004.51,0010.19,0003.61
2023-05-28 00:26:00,,0825.3,5.00,0.00,29.8,28.3,00.0,38.1,31.5,24.2,0000.0,0004.46,0010.08,0003.58
2023-05-28 00:27:00,,0825.3,5.00,0.00,29.8,28.4,00.0,38.1,31.5,24.6,0000.0,0004.43,0010.08,0003.56
2023-05-28 00:28:00,,0825.2,4.99,0.00,29.8,28.5,00.0,38.1,31.6,25.1,0000.0,0004.43,0010.42,0003.56
2023-05-28 00:29:00,,0825.3,5.00,0.00,29.9,28.3,00.0,38.1,31.5,24.8,0000.0,0004.44,0010.83,0003.56
2023-05-28 00:30:00,,0825.4,5.00,0.00,29.8,26.7,00.0,38.1,31.3,24.2,0000.0,0004.50,0011.54,0003.59
2023-05-28 00:31:00,,0825.5,5.01,0.00,29.8,25.7,00.0,38.0,31.2,24.2,0000.0,0004.53,0011.92,0003.62
2023-05-28 00:32:00,,0825.6,5.01,0.00,29.7,25.8,00.0,37.9,31.1,23.6,0000.0,0004.56,0012.20,0003.63
2023-05-28 00:33:00,,0825.7,5.00,0.00,29.6,26.1,00.0,37.9,31.0,24.0,0000.0,0004.60,0011.90,0003.65
2023-05-28 00:34:00,,0825.8,4.99,0.00,29.6,26.4,00.0,38.0,31.0,25.0,0000.0,0004.63,0011.85,0003.68
2023-05-28 00:35:00,,0825.9,5.00,0.00,29.6,26.8,00.0,38.0,31.1,25.1,0000.0,0004.67,0011.95,0003.71
2023-05-28 00:36:00,,0826.0,5.01,0.00,29.6,27.1,00.0,38.0,31.1,24.3,0000.0,0004.70,0011.76,0003.73
2023-05-28 00:37:00,,0826.2,4.99,0.00,29.6,27.4,00.0,38.0,31.2,25.2,0000.0,0004.77,0011.89,0003.76
2023-05-28 00:38:00,,0826.2,4.99,0.00,29.6,27.6,00.0,38.0,31.2,24.6,0000.0,0004.81,0011.98,0003.77
2023-05-28 00:39:00,,0826.4,5.00,0.00,29.6,27.8,00.0,38.0,31.3,24.4,0000.0,0004.80,0011.76,0003.77
2023-05-28 00:40:00,,0826.4,5.01,0.00,29.6,27.9,00.0,38.0,31.3,24.8,0000.0,0004.81,0011.64,0003.77
2023-05-28 00:41:00,,0826.6,5.00,0.00,29.7,28.1,00.0,38.0,31.3,25.2,0000.0,0004.80,0011.36,0003.76
2023-05-28 00:42:00,,0826.6,5.00,0.00,29.7,28.2,00.0,38.0,31.4,25.7,0000.0,0004.79,0011.04,0003.76
2023-05-28 00:43:00,,0826.6,4.99,0.00,29.7,28.3,00.0,38.0,31.4,25.9,0000.0,0004.77,0011.18,0003.77
2023-05-28 00:44:00,,0826.6,4.99,0.00,29.7,28.3,00.0,38.0,31.4,25.7,0000.0,0004.80,0011.33,0003.78
2023-05-28 00:45:00,,0826.6,5.00,0.00,29.7,28.4,00.0,38.0,31.4,25.4,0000.0,0004.77,0011.38,0003.79
2023-05-28 00:46:00,,0826.6,5.01,0.00,29.8,28.4,00.0,38.0,31.5,26.1,0000.0,0004.76,0011.03,0003.78
2023-05-28 00:47:00,,0826.6,5.01,0.00,29.8,28.4,00.0,38.1,31.5,26.1,0000.0,0004.75,0011.02,0003.77
2023-05-28 00:48:00,,0826.6,5.00,0.00,29.8,28.5,00.0,38.1,31.5,24.4,0000.0,0004.74,0011.04,0003.75
2023-05-28 00:49:00,,0826.6,4.99,0.00,29.8,28.5,00.0,38.1,31.5,25.2,0000.0,0004.73,0010.98,0003.75
2023-05-28 00:50:00,,0826.6,4.99,0.00,29.8,28.5,00.0,38.1,31.5,22.7,0000.0,0004.72,0010.96,0003.73
2023-05-28 00:51:00,,0826.6,5.00,0.00,29.9,28.5,00.0,38.1,31.5,24.9,0000.0,0004.76,0010.97,0003.71
2023-05-28 00:52:00,,0826.6,5.00,0.00,29.9,28.5,00.0,38.1,31.6,24.1,0000.0,0004.79,0010.67,0003.70
2023-05-28 00:53:00,,0826.6,5.01,0.00,29.9,28.6,00.0,38.2,31.6,24.6,0000.0,0004.79,0010.68,0003.68
2023-05-28 00:54:00,,0826.7,4.99,0.00,29.9,27.6,00.0,38.1,31.5,24.9,0000.0,0004.83,0010.45,0003.68
2023-05-28 00:55:00,,0826.8,5.01,0.00,29.8,26.0,00.0,38.0,31.2,23.2,0000.0,0004.84,0010.37,0003.66
2023-05-28 00:56:00,,0826.8,5.00,0.00,29.8,25.6,00.0,38.0,31.1,22.4,0000.0,0004.77,0009.83,0003.61
2023-05-28 00:57:00,,0826.8,5.01,0.00,29.7,25.7,00.0,38.0,31.0,24.6,0000.0,0004.76,0009.61,0003.59
2023-05-28 00:58:00,,0826.9,4.99,0.00,29.6,26.1,00.0,38.0,31.0,25.1,0000.0,0004.76,0009.55,0003.59
2023-05-28 00:59:00,,0827.0,5.00,0.00,29.6,26.5,00.0,38.0,31.1,24.5,0000.0,0004.77,0009.57,0003.59
